Location: Foulognes
(49.1413°N, 0.8183°W)
Time: 00:50:33
(UTC+00:00)

Cosmos 1898 Rocket - Pass Details

Date: 21 October 2019
Orbit: 753 x 784 km, 74.0° (Epoch: 20 November)

Event Time Altitude Azimuth Distance (km) Brightness Sun altitude
Rises 18:39:47 0° 339° (NNW) 3,251 7.1 -16.6°
Reaches altitude 10° 18:42:13 10° 344° (NNW) 2,326 6.2 -17.0°
Maximum altitude 18:47:24 54° 62° (ENE) 943 3.6 -17.9°
Enters shadow 18:50:03 28° 127° (SE) 1,442 4.4 -18.3°
